Location: Kra?nica
(53.4833°N, 14.6167°E)
Time: 07:15:05
(UTC+00:00)

COSMOS 2406 - Pass Details

Date: 23 May 2024
Orbit: 844 x 862 km, 71.0° (Epoch: 15 June)

Event Time Altitude Azimuth Distance (km) Brightness Sun altitude
Exits shadow 01:19:31 10° 236° (SW) 2,503 5.1 -9.9°
Reaches altitude 10° 01:19:31 10° 236° (SW) 2,500 5.1 -9.9°
Maximum altitude 01:25:06 49° 311° (NW) 1,103 3.9 -9.4°
Drops below altitude 10° 01:30:42 10° 26° (NNE) 2,510 7.3 -8.9°
Sets 01:33:15 0° 32° (NNE) 3,448 8.8 -8.7°
